CET,Max TemperatureF,Mean TemperatureF,Min TemperatureF,Max Dew PointF,MeanDew PointF,Min DewpointF,Max Humidity, Mean Humidity, Min Humidity, Max Sea Level PressureIn, Mean Sea Level PressureIn, Min Sea Level PressureIn, Max VisibilityMiles, Mean VisibilityMiles, Min VisibilityMiles, Max Wind SpeedMPH, Mean Wind SpeedMPH, Max Gust SpeedMPH,PrecipitationIn, CloudCover, Events, WindDirDegrees
2012-12-1,34,28,23,28,25,21,93,85,62,30.01,29.92,29.86,16,7,5,9,5,,0.00,2,Fog-Snow,218
2012-12-2,30,26,23,28,25,21,93,87,76,29.98,29.83,29.80,9,6,5,17,7,,0.00,5,Snow,210
2012-12-3,34,30,26,28,26,23,93,86,60,29.99,29.87,29.68,19,6,1,13,9,,0.00,6,Snow,264
2012-12-4,37,32,26,34,30,23,100,89,64,29.71,29.50,29.42,16,6,1,23,8,,0.04,6,Rain-Snow,211
2012-12-5,33,30,26,30,28,23,93,86,57,29.68,29.53,29.42,16,6,2,23,12,,0.01,4,Snow,240
2012-12-6,32,26,21,30,24,14,100,82,52,30.00,29.74,29.62,9,5,1,23,12,32,0.00,5,Snow,246
2012-12-7,29,22,15,21,17,12,93,82,55,30.05,29.86,29.77,19,6,3,14,9,,0.00,2,,161
2012-12-8,25,18,12,19,15,10,93,87,74,30.26,30.04,29.86,6,4,2,13,6,,0.00,5,,301
2012-12-9,30,23,16,25,19,14,93,84,55,30.27,29.93,29.68,9,3,1,25,14,,0.04,7,Snow,224
2012-12-10,35,30,26,32,30,26,100,90,75,29.74,29.63,29.59,16,5,2,24,16,,0.00,6,Snow,238
2012-12-11,27,22,17,29,22,16,100,87,70,30.16,29.96,29.74,6,4,1,17,12,,0.00,6,Snow,302
2012-12-12,23,16,10,19,15,9,93,85,76,30.25,30.11,30.06,16,6,1,13,10,,0.00,5,Snow,225
2012-12-13,28,21,14,21,18,12,93,84,67,30.15,30.00,29.92,12,6,6,12,7,,0.00,6,,166
2012-12-14,28,24,19,19,18,16,93,82,62,30.00,29.86,29.71,6,5,4,12,8,,0.00,5,,122
2012-12-15,35,26,17,34,28,16,100,92,86,29.82,29.72,29.65,4,3,2,14,4,,0.08,6,Rain,179
2012-12-16,41,38,35,37,35,34,100,92,81,29.84,29.78,29.77,9,6,4,16,10,,0.12,4,Rain,200
2012-12-17,37,36,34,37,35,34,100,96,91,29.83,29.76,29.74,16,6,4,13,8,,0.08,6,Rain,192
2012-12-18,39,36,33,38,35,34,100,95,93,30.04,29.90,29.77,6,2,0,7,4,,0.04,7,Fog-Rain,242
2012-12-19,41,36,32,37,34,32,100,94,78,30.30,30.16,30.04,9,5,3,8,6,,0.00,6,Rain,242
2012-12-20,34,31,28,34,31,27,100,96,82,30.31,30.13,29.95,6,3,0,9,5,,0.00,7,Fog,96
2012-12-21,30,28,26,27,26,23,93,89,79,30.04,29.94,29.89,6,4,2,8,6,,0.00,8,,88
2012-12-22,33,30,28,32,29,27,100,93,83,30.17,30.04,29.95,6,3,0,7,3,,0.00,7,Fog-Rain-Snow,119
2012-12-23,48,38,31,46,33,32,100,97,93,29.97,29.83,29.77,6,3,1,15,7,,0.63,7,Rain-Snow,122
2012-12-24,52,41,30,46,41,28,100,86,70,29.89,29.82,29.77,19,6,1,24,11,,0.00,5,Fog,211
2012-12-25,48,38,29,41,34,28,100,88,71,29.82,29.71,29.65,6,3,0,21,4,31,0.00,3,Fog,194
2012-12-26,46,40,34,39,37,34,93,78,63,29.92,29.83,29.77,19,6,6,29,19,41,0.04,4,Rain,222
2012-12-27,46,42,38,41,37,34,100,80,67,29.92,29.74,29.68,19,6,6,28,17,41,0.04,3,Rain,215
2012-12-28,42,35,28,41,31,23,100,87,65,30.42,30.16,29.74,16,6,4,21,10,,0.00,6,Rain,284
2012-12-29,40,34,27,34,29,26,100,88,72,30.45,30.22,30.06,12,6,5,11,8,,0.00,5,,123
2012-12-30,40,32,23,34,28,23,100,91,79,30.18,30.08,30.04,6,3,0,17,6,,0.00,3,Fog-Rain,201
2012-12-31,45,39,33,36,32,28,87,77,60,30.21,30.08,29.92,19,7,6,20,13,,0.00,2,,196